Probability
0 0 0 0 0 0 0 0 0 0 0 0 0 0 0 0 0 0 0 0 0 0 0 0 0 0 0 0 0 0 0 0 0 0 0 0 0 0 0 0 0 0 0 0
0 0 0 0 0 0 0 0 0 0 0 0 0 0 0 0 0 0 0 0 0 0 0 0 0 0 0 0 0 0 0 0 0 0 0 0 0 0 0 0 0 0 0 0
0 0 0 0 0 0 0 0 0 0 0 0 0 0 0 0 0 0 0 0 0 0 0 0 0 0 0 0 0 0 0 0 0 0 0 0 0 0 0 0 0 0 0 0
0 0 0 0 0 0 0 0 0 0 0 0 0 0 0 0 0 0 0 0 0 0 0 0 0 0 0 0 0 0 0 0 0 0 0 0 0 0 0 0 0 0 0 0
0 0 0 0 0 0 0 0 0 0 0 0 0 0 0 0 0 0 0 0 0 0 0 0 0 0 0 0 0 0 0 0 0 0 0 0 0 0 0 0 0 0 0 0
0 0 0 0 0 0 0 0 0 0 0 0 0 0 0 0 0 0 0 0 0 0 0 0 0 0 0 0 0 0 0 0 0 0 0 0 0 0 0 0 0 0 0 0
0 0 0 0 0 0 0 0 0 0 0 0 0 0 0 0 0 0 0 0 0 0 0 0 0 0 0 0 0 0 0 0 0 0 0 0 0 0 0 0 0 0 0 0
0 0 0 0 0 0 0 0 0 0 0 0 0 0 0 0 0 0 0 0 0 0 0 0 0 0 0 0 0 0 0 0 0 0 0 0 1 1 0 0 0 0 0 0
0 0 0 0 0 0 0 0 0 0 0 0 0 0 0 0 0 0 0 0 0 0 0 0 0 0 0 0 0 0 0 0 0 0 0 0 1 2 1 0 0 0 0 0
0 0 0 0 0 0 0 0 0 0 0 0 0 0 0 0 0 0 0 0 0 0 0 0 0 0 0 0 0 0 0 0 0 0 0 0 1 2 1 0 0 0 0 0
0 0 0 0 0 0 0 0 0 0 0 0 0 0 0 0 0 0 0 0 0 0 0 0 0 0 0 0 0 0 0 0 0 0 0 0 0 1 1 0 0 0 0 0
0 0 0 0 0 0 0 0 0 0 0 0 0 0 0 0 0 0 0 0 0 0 0 0 0 0 0 0 0 0 0 0 0 0 0 0 0 0 0 0 0 0 0 0
0 0 0 0 0 0 0 0 0 0 0 0 0 0 0 0 0 0 0 0 0 0 0 0 0 0 0 0 0 0 0 0 0 0 0 0 0 0 0 0 0 0 0 0
0 0 0 0 0 0 0 0 0 0 0 0 0 0 0 0 0 0 0 0 0 0 0 0 0 0 0 0 0 0 0 0 0 0 0 0 0 0 0 0 0 0 0 0
0 0 0 0 0 0 0 0 0 0 0 0 0 0 0 0 0 0 0 0 0 0 0 0 0 0 0 0 0 0 0 0 0 0 0 0 0 0 0 0 0 0 0 0
0 0 0 0 0 0 0 0 0 0 0 0 0 0 0 0 0 0 0 0 0 0 0 0 0 0 0 0 0 0 0 0 0 0 0 0 0 0 0 0 0 0 0 0
0 0 0 0 0 0 0 0 0 0 0 0 0 0 0 0 0 0 0 0 0 0 0 0 0 0 0 0 0 0 0 0 0 0 0 0 0 0 0 0 0 0 0 0
0 0 0 0 0 0 0 0 0 0 0 0 0 0 0 0 0 0 0 0 0 0 0 0 0 0 0 0 0 0 0 0 0 0 0 0 0 0 0 0 0 0 0 0
0 0 0 0 0 0 0 0 0 0 0 0 0 0 0 0 0 0 0 0 0 0 0 0 0 0 0 0 0 0 0 0 0 0 0 0 0 0 0 0 0 0 0 0
0 0 0 0 0 0 0 0 0 0 0 0 0 0 0 0 0 0 0 0 0 0 0 0 0 0 0 0 0 0 0 0 0 0 0 0 0 0 0 0 0 0 0 0
0 0 0 0 0 0 0 0 0 0 0 0 0 0 0 0 0 0 0 0 0 0 0 0 0 0 0 0 0 0 0 0 0 0 0 0 0 0 0 0 0 0 0 0
0 0 0 0 0 0 0 0 0 0 0 0 0 0 0 0 0 0 0 0 0 0 0 0 0 0 0 0 0 0 0 0 0 0 0 0 0 0 0 0 0 0 0 0
0 0 0 0 0 0 0 0 0 0 0 0 0 0 0 0 0 0 0 0 0 0 0 0 0 0 0 0 0 0 0 0 0 0 0 0 0 0 0 0 0 0 0 0
0 0 0 0 0 0 0 0 0 0 0 0 0 0 0 0 0 0 0 0 0 0 0 0 0 0 0 0 0 0 0 0 0 0 0 0 0 0 0 0 0 0 0 0
0 0 0 0 0 0 0 0 0 0 0 0 0 0 0 0 0 0 0 0 0 0 0 0 0 0 0 0 0 0 0 0 0 0 0 0 0 0 0 0 0 0 0 0
0 0 0 0 0 0 0 0 0 0 0 0 0 0 0 0 0 0 0 0 0 0 0 0 0 0 0 0 0 0 0 0 0 0 0 0 0 0 0 0 0 0 0 0
0 0 0 0 0 0 0 0 0 0 0 0 0 0 0 0 0 0 0 0 0 0 0 0 0 0 0 0 0 0 0 0 0 0 0 0 0 0 0 0 0 0 0 0
Wind_Speed
3 2 3 5 5 4 3 3 0 6 10 11 10 9 9 9 8 8 7 6 6 4 4 3 3 2 2 2 2 2 2 1 0 1 1 1 1 1 2 2 3 3 3 2
5 6 5 4 4 4 3 2 2 6 6 8 10 9 9 9 9 8 7 6 6 4 4 3 2 2 2 1 1 2 2 1 1 1 1 1 1 2 2 2 2 3 3 3
5 6 7 7 6 6 5 3 3 5 5 9 9 9 9 8 8 7 7 6 5 4 3 2 2 2 2 2 2 2 2 1 1 0 1 1 2 2 2 2 2 3 3 3
5 6 7 1 2 3 4 3 3 5 8 9 8 8 8 8 7 7 6 5 4 3 2 2 2 2 2 2 2 3 2 1 1 1 1 1 2 2 2 2 3 3 3 4
5 6 4 4 4 4 5 3 4 7 9 9 9 9 7 7 7 6 5 5 4 3 2 2 2 2 2 2 2 2 2 1 1 1 1 2 2 2 2 3 3 3 3 4
6 6 5 3 5 3 4 4 4 6 9 9 9 5 5 7 7 7 6 4 3 3 3 3 3 3 2 2 3 2 2 2 2 2 2 2 2 2 2 3 4 4 4 4
8 7 0 4 3 3 4 3 6 7 7 8 6 4 7 8 7 6 6 5 4 3 3 3 3 2 2 3 2 2 2 2 2 2 3 2 2 2 3 3 3 4 5 5
8 8 3 4 3 2 4 7 7 7 7 7 8 9 9 8 7 6 5 4 3 3 3 2 2 2 2 2 2 2 2 2 3 3 3 2 2 3 3 3 3 4 4 4
1 3 6 5 5 5 7 8 7 7 7 8 8 8 8 7 6 5 4 3 3 2 2 1 2 2 2 2 2 2 2 3 3 3 2 2 2 3 3 3 2 3 3 3
3 6 6 6 6 6 6 6 6 6 7 7 7 7 6 5 4 4 3 3 2 1 1 1 1 1 1 2 2 3 3 3 3 3 3 3 2 2 3 3 3 3 3 4
2 5 5 4 5 6 6 6 6 6 6 6 6 5 4 4 3 3 3 2 1 1 1 1 1 1 1 2 3 4 4 3 3 3 3 3 3 3 4 4 4 5 4 4
2 5 4 5 5 5 5 5 5 5 5 4 4 4 3 3 2 2 1 1 1 1 0 1 2 1 2 2 3 4 4 4 3 3 3 3 4 4 6 7 9 10 10 9
2 4 5 6 5 5 4 4 4 4 4 3 3 3 3 2 2 1 1 0 0 0 1 2 2 2 2 3 3 4 4 4 3 3 3 4 4 4 5 6 9 11 11 11
3 4 5 4 5 4 4 4 4 4 3 3 2 2 2 1 1 1 0 1 1 1 1 2 2 2 2 2 3 4 5 4 4 3 3 4 5 5 5 6 6 5 7 9
2 2 3 4 4 4 3 3 3 3 3 2 2 2 2 1 0 0 1 2 2 2 2 2 2 2 2 3 4 5 4 3 3 3 4 5 5 5 6 6 6 6 5 5
3 3 4 4 4 4 4 3 3 2 2 1 1 1 0 0 1 1 1 2 2 3 3 3 3 2 2 2 4 4 3 6 6 5 5 5 5 5 5 6 6 6 6 5
4 5 5 4 4 4 3 2 2 2 1 1 0 0 1 1 2 2 2 2 3 3 3 3 2 2 2 3 4 3 4 5 8 6 5 5 5 6 6 6 6 6 6 6
3 3 3 3 3 3 2 2 1 1 1 1 1 1 1 2 3 3 3 3 3 4 3 3 2 2 3 4 4 3 4 4 5 5 5 6 6 6 6 6 7 8 7 7
3 3 3 2 2 2 2 1 1 1 1 1 1 2 2 3 3 3 4 4 4 4 4 3 3 3 4 4 5 3 4 5 6 6 6 7 7 6 6 7 7 7 7 6
2 2 2 2 1 1 1 1 1 1 1 1 2 2 3 3 3 4 4 4 4 3 3 2 2 3 4 5 5 4 5 6 6 7 6 6 6 6 7 7 7 7 7 7
2 2 2 1 1 1 1 1 1 1 1 1 2 3 3 4 4 4 4 4 4 3 3 3 3 3 3 4 6 5 5 6 7 7 6 6 6 7 7 7 7 7 7 7
2 2 1 1 1 1 1 2 1 2 2 2 3 4 4 4 5 5 5 4 3 2 2 2 3 4 5 7 5 5 6 7 7 6 6 6 6 7 7 7 7 7 7 7
1 1 1 2 2 2 2 2 2 2 3 3 4 4 4 4 3 4 4 3 2 2 3 3 5 8 10 6 5 6 7 8 7 6 6 6 6 7 7 7 6 6 6 7
2 2 2 2 3 3 3 3 3 3 3 3 4 4 5 4 4 3 3 4 4 4 4 5 8 11 10 5 6 6 7 6 6 6 6 6 6 6 6 6 6 6 6 8
3 3 3 3 3 3 3 3 4 3 4 3 4 4 4 3 3 3 4 4 5 5 4 6 10 11 7 6 6 6 6 6 7 7 6 6 6 6 6 6 6 6 6 6
3 3 3 3 3 2 3 3 3 3 3 3 3 3 3 3 3 3 3 4 5 6 5 4 5 6 5 6 6 6 6 7 7 6 6 6 6 6 6 6 8 6 6 6
4 4 3 3 3 2 2 2 3 3 3 3 4 3 3 4 4 4 5 4 4 4 4 4 4 5 5 5 5 6 6 5 6 6 6 5 5 6 6 7 6 5 5 5
Wind_Direction
204 260 207 189 200 216 256 295 32 124 135 151 146 139 134 130 127 122 118 114 111 113 113 112 108 106 103 108 118 119 120 127 112 317 323 324 324 314 302 297 301 304 303 300
219 210 220 210 215 213 212 234 136 127 116 133 136 137 139 139 134 127 120 115 114 114 115 122 120 113 99 95 96 97 93 83 66 349 353 345 332 322 307 295 296 305 302 297
248 208 207 220 215 208 195 201 189 154 131 131 133 137 137 134 129 126 124 118 114 115 109 112 105 103 96 78 74 91 86 53 48 344 345 330 323 315 302 293 285 284 282 282
252 225 228 170 128 160 165 168 132 118 123 129 133 127 122 123 127 124 119 115 109 102 96 93 92 90 93 86 74 67 58 27 14 2 345 329 306 295 291 295 289 270 269 273
259 244 217 157 150 158 162 144 125 129 130 126 121 115 111 115 115 112 112 109 102 90 81 73 66 70 77 83 79 67 35 351 343 332 311 299 294 285 280 288 289 284 275 269
264 257 246 135 138 160 168 154 140 144 143 145 145 142 136 120 109 106 99 97 93 84 69 60 50 47 45 49 56 46 13 343 334 326 304 283 280 286 283 275 270 277 280 270
254 257 261 94 121 161 187 149 133 137 139 144 145 110 116 116 106 103 103 96 90 81 68 49 35 40 38 32 28 8 346 327 313 307 291 279 282 285 284 279 280 277 278 271
230 237 205 126 144 149 99 101 114 115 119 119 107 103 111 112 110 110 106 101 96 88 75 54 31 26 30 23 1 348 333 312 298 293 296 308 294 286 285 281 280 280 281 284
48 91 89 99 91 75 93 103 102 109 112 113 113 114 115 116 119 119 118 111 97 92 90 71 38 20 6 347 336 325 316 305 295 293 294 298 296 293 292 283 277 283 286 288
112 125 121 109 96 86 86 91 91 101 110 115 116 118 119 123 127 131 126 118 115 109 93 52 17 353 335 332 321 309 300 298 299 302 308 310 296 273 275 276 270 273 279 281
153 128 121 121 115 107 97 94 96 98 107 116 120 124 124 131 132 128 128 130 128 114 105 306 309 320 336 335 330 317 309 310 311 315 311 298 286 274 271 260 255 255 258 262
194 163 158 145 132 124 123 120 115 112 109 111 119 125 127 125 118 121 130 130 132 120 261 292 310 330 348 347 334 324 322 321 314 308 304 300 294 292 274 270 274 267 261 262
29 90 105 116 121 122 125 124 122 123 121 117 114 119 121 113 117 121 139 202 192 228 281 303 316 323 343 343 331 318 313 313 313 313 310 304 299 296 297 292 278 271 268 269
68 99 118 127 127 124 128 130 131 126 114 106 97 93 99 96 97 97 312 315 310 295 291 297 307 318 332 327 317 309 309 308 306 297 297 297 295 291 287 287 292 284 268 266
132 129 132 124 129 136 136 143 140 129 115 102 87 79 79 76 46 341 335 327 310 295 292 297 300 303 315 321 316 309 306 301 300 297 291 286 284 284 284 286 287 290 290 282
151 149 159 157 157 157 159 160 155 143 129 118 107 86 50 337 292 285 286 292 296 292 290 292 291 295 313 322 311 302 295 297 300 292 286 285 284 286 287 288 289 289 287 283
185 181 177 175 170 167 167 168 172 159 159 167 159 193 298 291 283 279 283 286 287 289 289 288 294 317 328 312 303 295 294 293 294 294 285 285 287 288 288 287 287 286 285 285
188 180 178 173 173 175 179 182 184 190 206 223 248 264 275 280 284 287 291 293 291 290 293 300 324 324 307 299 299 297 297 295 290 288 288 289 293 293 292 289 290 289 288 287
161 164 160 162 169 175 186 198 214 224 248 272 274 276 279 282 287 292 294 289 285 283 282 292 311 304 297 292 296 284 290 293 294 290 287 289 290 287 288 286 286 286 287 287
137 144 147 154 171 175 195 218 240 242 249 260 268 272 276 280 283 284 283 278 269 265 279 311 302 292 291 296 307 296 292 289 288 288 287 285 285 286 288 289 289 289 289 287
147 145 149 164 171 221 256 253 243 248 265 270 270 274 278 283 283 281 279 277 276 282 288 284 278 281 289 312 307 294 289 286 283 283 285 286 287 288 288 289 290 291 291 291
154 154 170 186 212 239 248 265 271 274 275 272 272 273 276 276 278 278 275 270 274 287 287 279 279 291 305 310 290 282 279 279 279 278 280 283 286 287 288 290 290 291 293 294
217 209 211 223 238 253 259 269 276 275 270 273 279 281 278 275 273 271 274 275 284 285 283 277 283 289 293 291 279 278 277 278 278 278 281 285 287 287 286 288 289 292 293 293
280 276 276 275 271 267 268 275 282 282 277 274 269 270 272 272 271 269 274 280 282 278 274 275 281 284 285 276 275 276 278 279 281 285 287 286 285 285 285 286 287 285 283 286
276 276 276 280 278 279 282 288 290 286 284 278 277 278 277 266 265 271 277 283 286 284 278 279 285 288 283 277 277 280 284 285 288 290 284 285 285 285 286 287 289 287 284 283
273 275 276 271 271 278 283 284 281 282 281 280 279 281 286 286 281 278 275 277 279 281 279 273 273 276 277 280 282 287 289 293 293 287 284 287 288 289 287 287 289 287 284 283
273 268 261 261 261 260 267 275 279 283 286 284 287 297 305 304 300 298 296 292 287 278 275 274 276 279 282 282 283 286 288 289 292 293 294 292 290 289 289 289 289 286 285 284